Year,Month,Day,Hour,Minute,Value (Times are PST for insolation in W/m^2)
2012,01,31,00,00,0.00
2012,01,31,00,01,0.00
2012,01,31,00,02,0.00
2012,01,31,00,03,0.00
2012,01,31,00,04,0.00
2012,01,31,00,05,0.00
2012,01,31,00,06,0.00
2012,01,31,00,07,0.00
2012,01,31,00,08,0.00
2012,01,31,00,09,0.00
2012,01,31,00,10,0.00
2012,01,31,00,11,0.00
2012,01,31,00,12,0.00
2012,01,31,00,13,0.00
2012,01,31,00,14,0.00
2012,01,31,00,15,0.00
2012,01,31,00,16,0.00
2012,01,31,00,17,0.00
2012,01,31,00,18,0.00
2012,01,31,00,19,0.00
2012,01,31,00,20,0.00
2012,01,31,00,21,0.00
2012,01,31,00,22,0.00
2012,01,31,00,23,0.00
2012,01,31,00,24,0.00
2012,01,31,00,25,0.00
2012,01,31,00,26,0.00
2012,01,31,00,27,0.00
2012,01,31,00,28,0.00
2012,01,31,00,29,0.00
2012,01,31,00,30,0.00
2012,01,31,00,31,0.00
2012,01,31,00,32,0.00
2012,01,31,00,33,0.00
2012,01,31,00,34,0.00
2012,01,31,00,35,0.00
2012,01,31,00,36,0.00
2012,01,31,00,37,0.00
2012,01,31,00,38,0.00
2012,01,31,00,39,0.00
2012,01,31,00,40,0.00
2012,01,31,00,41,0.00
2012,01,31,00,42,0.00
2012,01,31,00,43,0.00
2012,01,31,00,44,0.00
2012,01,31,00,45,0.00
2012,01,31,00,46,0.00
2012,01,31,00,47,0.00
2012,01,31,00,48,0.00
2012,01,31,00,49,0.00
2012,01,31,00,50,0.00
2012,01,31,00,51,0.00
2012,01,31,00,52,0.00
2012,01,31,00,53,0.00
2012,01,31,00,54,0.00
2012,01,31,00,55,0.00
2012,01,31,00,56,0.00
2012,01,31,00,57,0.00
2012,01,31,00,58,0.00
2012,01,31,00,59,0.00
2012,01,31,01,00,0.00
2012,01,31,01,01,0.00
2012,01,31,01,02,0.00
2012,01,31,01,03,0.00
2012,01,31,01,04,0.00
2012,01,31,01,05,0.00
2012,01,31,01,06,0.00
2012,01,31,01,07,0.00
2012,01,31,01,08,0.00
2012,01,31,01,09,0.00
2012,01,31,01,10,0.00
2012,01,31,01,11,0.00
2012,01,31,01,12,0.00
2012,01,31,01,13,0.00
2012,01,31,01,14,0.00
2012,01,31,01,15,0.00
2012,01,31,01,16,0.00
2012,01,31,01,17,0.00
2012,01,31,01,18,0.00
2012,01,31,01,19,0.00
2012,01,31,01,20,0.00
2012,01,31,01,21,0.00
2012,01,31,01,22,0.00
2012,01,31,01,23,0.00
2012,01,31,01,24,0.00
2012,01,31,01,25,0.00
2012,01,31,01,26,0.00
2012,01,31,01,27,0.00
2012,01,31,01,28,0.00
2012,01,31,01,29,0.00
2012,01,31,01,30,0.00
2012,01,31,01,31,0.00
2012,01,31,01,32,0.00
2012,01,31,01,33,0.00
2012,01,31,01,34,0.00
2012,01,31,01,35,0.00
2012,01,31,01,36,0.00
2012,01,31,01,37,0.00
2012,01,31,01,38,0.00
2012,01,31,01,39,0.00
2012,01,31,01,40,0.00
2012,01,31,01,41,0.00
2012,01,31,01,42,0.00
2012,01,31,01,43,0.00
2012,01,31,01,44,0.00
2012,01,31,01,45,0.00
2012,01,31,01,46,0.00
2012,01,31,01,47,0.00
2012,01,31,01,48,0.00
2012,01,31,01,49,0.00
2012,01,31,01,50,0.00
2012,01,31,01,51,0.00
2012,01,31,01,52,0.00
2012,01,31,01,53,0.00
2012,01,31,01,54,0.00
2012,01,31,01,55,0.00
2012,01,31,01,56,0.00
2012,01,31,01,57,0.00
2012,01,31,01,58,0.00
2012,01,31,01,59,0.00
2012,01,31,02,00,0.00
2012,01,31,02,01,0.00
2012,01,31,02,02,0.00
2012,01,31,02,03,0.00
2012,01,31,02,04,0.00
2012,01,31,02,05,0.00
2012,01,31,02,06,0.00
2012,01,31,02,07,0.00
2012,01,31,02,08,0.00
2012,01,31,02,09,0.00
2012,01,31,02,10,0.00
2012,01,31,02,11,0.00
2012,01,31,02,12,0.00
2012,01,31,02,13,0.00
2012,01,31,02,14,0.00
2012,01,31,02,15,0.00
2012,01,31,02,16,0.00
2012,01,31,02,17,0.00
2012,01,31,02,18,0.00
2012,01,31,02,19,0.00
2012,01,31,02,20,0.00
2012,01,31,02,21,0.00
2012,01,31,02,22,0.00
2012,01,31,02,23,0.00
2012,01,31,02,24,0.00
2012,01,31,02,25,0.00
2012,01,31,02,26,0.00
2012,01,31,02,27,0.00
2012,01,31,02,28,0.00
2012,01,31,02,29,0.00
2012,01,31,02,30,0.00
2012,01,31,02,31,0.00
2012,01,31,02,32,0.00
2012,01,31,02,33,0.00
2012,01,31,02,34,0.00
2012,01,31,02,35,0.00
2012,01,31,02,36,0.00
2012,01,31,02,37,0.00
2012,01,31,02,38,0.00
2012,01,31,02,39,0.00
2012,01,31,02,40,0.00
2012,01,31,02,41,0.00
2012,01,31,02,42,0.00
2012,01,31,02,43,0.00
2012,01,31,02,44,0.00
2012,01,31,02,45,0.00
2012,01,31,02,46,0.00
2012,01,31,02,47,0.00
2012,01,31,02,48,0.00
2012,01,31,02,49,0.00
2012,01,31,02,50,0.00
2012,01,31,02,51,0.00
2012,01,31,02,52,0.00
2012,01,31,02,53,0.00
2012,01,31,02,54,0.00
2012,01,31,02,55,0.00
2012,01,31,02,56,0.00
2012,01,31,02,57,0.00
2012,01,31,02,58,0.00
2012,01,31,02,59,0.00
2012,01,31,03,00,0.00
2012,01,31,03,01,0.00
2012,01,31,03,02,0.00
2012,01,31,03,03,0.00
2012,01,31,03,04,0.00
2012,01,31,03,05,0.00
2012,01,31,03,06,0.00
2012,01,31,03,07,0.00
2012,01,31,03,08,0.00
2012,01,31,03,09,0.00
2012,01,31,03,10,0.00
2012,01,31,03,11,0.00
2012,01,31,03,12,0.00
2012,01,31,03,13,0.00
2012,01,31,03,14,0.00
2012,01,31,03,15,0.00
2012,01,31,03,16,0.00
2012,01,31,03,17,0.00
2012,01,31,03,18,0.00
2012,01,31,03,19,0.00
2012,01,31,03,20,0.00
2012,01,31,03,21,0.00
2012,01,31,03,22,0.00
2012,01,31,03,23,0.00
2012,01,31,03,24,0.00
2012,01,31,03,25,0.00
2012,01,31,03,26,0.00
2012,01,31,03,27,0.00
2012,01,31,03,28,0.00
2012,01,31,03,29,0.00
2012,01,31,03,30,0.00
2012,01,31,03,31,0.00
2012,01,31,03,32,0.00
2012,01,31,03,33,0.00
2012,01,31,03,34,0.00
2012,01,31,03,35,0.00
2012,01,31,03,36,0.00
2012,01,31,03,37,0.00
2012,01,31,03,38,0.00
2012,01,31,03,39,0.00
2012,01,31,03,40,0.00
2012,01,31,03,41,0.00
2012,01,31,03,42,0.00
2012,01,31,03,43,0.00
2012,01,31,03,44,0.00
2012,01,31,03,45,0.00
2012,01,31,03,46,0.00
2012,01,31,03,47,0.00
2012,01,31,03,48,0.00
2012,01,31,03,49,0.00
2012,01,31,03,50,0.00
2012,01,31,03,51,0.00
2012,01,31,03,52,0.00
2012,01,31,03,53,0.00
2012,01,31,03,54,0.00
2012,01,31,03,55,0.00
2012,01,31,03,56,0.00
2012,01,31,03,57,0.00
2012,01,31,03,58,0.00
2012,01,31,03,59,0.00
2012,01,31,04,00,0.00
2012,01,31,04,01,0.00
2012,01,31,04,02,0.00
2012,01,31,04,03,0.00
2012,01,31,04,04,0.00
2012,01,31,04,05,0.00
2012,01,31,04,06,0.00
2012,01,31,04,07,0.00
2012,01,31,04,08,0.00
2012,01,31,04,09,0.00
2012,01,31,04,10,0.00
2012,01,31,04,11,0.00
2012,01,31,04,12,0.00
2012,01,31,04,13,0.00
2012,01,31,04,14,0.00
2012,01,31,04,15,0.00
2012,01,31,04,16,0.00
2012,01,31,04,17,0.00
2012,01,31,04,18,0.00
2012,01,31,04,19,0.00
2012,01,31,04,20,0.00
2012,01,31,04,21,0.00
2012,01,31,04,22,0.00
2012,01,31,04,23,0.00
2012,01,31,04,24,0.00
2012,01,31,04,25,0.00
2012,01,31,04,26,0.00
2012,01,31,04,27,0.00
2012,01,31,04,28,0.00
2012,01,31,04,29,0.00
2012,01,31,04,30,0.00
2012,01,31,04,31,0.00
2012,01,31,04,32,0.00
2012,01,31,04,33,0.00
2012,01,31,04,34,0.00
2012,01,31,04,35,0.00
2012,01,31,04,36,0.00
2012,01,31,04,37,0.00
2012,01,31,04,38,0.00
2012,01,31,04,39,0.00
2012,01,31,04,40,0.00
2012,01,31,04,41,0.00
2012,01,31,04,42,0.00
2012,01,31,04,43,0.00
2012,01,31,04,44,0.00
2012,01,31,04,45,0.00
2012,01,31,04,46,0.00
2012,01,31,04,47,0.00
2012,01,31,04,48,0.00
2012,01,31,04,49,0.00
2012,01,31,04,50,0.00
2012,01,31,04,51,0.00
2012,01,31,04,52,0.00
2012,01,31,04,53,0.00
2012,01,31,04,54,0.00
2012,01,31,04,55,0.00
2012,01,31,04,56,0.00
2012,01,31,04,57,0.00
2012,01,31,04,58,0.00
2012,01,31,04,59,0.00
2012,01,31,05,00,0.00
2012,01,31,05,01,0.00
2012,01,31,05,02,0.00
2012,01,31,05,03,0.00
2012,01,31,05,04,0.00
2012,01,31,05,05,0.00
2012,01,31,05,06,0.00
2012,01,31,05,07,0.00
2012,01,31,05,08,0.00
2012,01,31,05,09,0.00
2012,01,31,05,10,0.00
2012,01,31,05,11,0.00
2012,01,31,05,12,0.00
2012,01,31,05,13,0.00
2012,01,31,05,14,0.00
2012,01,31,05,15,0.00
2012,01,31,05,16,0.00
2012,01,31,05,17,0.00
2012,01,31,05,18,0.00
2012,01,31,05,19,0.00
2012,01,31,05,20,0.00
2012,01,31,05,21,0.00
2012,01,31,05,22,0.00
2012,01,31,05,23,0.00
2012,01,31,05,24,0.00
2012,01,31,05,25,0.00
2012,01,31,05,26,0.00
2012,01,31,05,27,0.00
2012,01,31,05,28,0.00
2012,01,31,05,29,0.00
2012,01,31,05,30,0.00
2012,01,31,05,31,0.00
2012,01,31,05,32,0.00
2012,01,31,05,33,0.00
2012,01,31,05,34,0.00
2012,01,31,05,35,0.00
2012,01,31,05,36,0.00
2012,01,31,05,37,0.00
2012,01,31,05,38,0.00
2012,01,31,05,39,0.00
2012,01,31,05,40,0.00
2012,01,31,05,41,0.00
2012,01,31,05,42,0.00
2012,01,31,05,43,0.00
2012,01,31,05,44,0.00
2012,01,31,05,45,0.00
2012,01,31,05,46,0.00
2012,01,31,05,47,0.00
2012,01,31,05,48,0.00
2012,01,31,05,49,0.00
2012,01,31,05,50,0.00
2012,01,31,05,51,0.00
2012,01,31,05,52,0.00
2012,01,31,05,53,0.00
2012,01,31,05,54,0.00
2012,01,31,05,55,0.00
2012,01,31,05,56,0.00
2012,01,31,05,57,0.00
2012,01,31,05,58,0.00
2012,01,31,05,59,0.00
2012,01,31,06,00,0.00
2012,01,31,06,01,0.00
2012,01,31,06,02,0.00
2012,01,31,06,03,0.00
2012,01,31,06,04,0.00
2012,01,31,06,05,0.00
2012,01,31,06,06,0.00
2012,01,31,06,07,0.00
2012,01,31,06,08,0.00
2012,01,31,06,09,0.00
2012,01,31,06,10,0.00
2012,01,31,06,11,0.00
2012,01,31,06,12,0.00
2012,01,31,06,13,0.00
2012,01,31,06,14,0.00
2012,01,31,06,15,0.00
2012,01,31,06,16,0.00
2012,01,31,06,17,0.00
2012,01,31,06,18,0.00
2012,01,31,06,19,0.00
2012,01,31,06,20,0.00
2012,01,31,06,21,0.00
2012,01,31,06,22,0.00
2012,01,31,06,23,0.00
2012,01,31,06,24,0.00
2012,01,31,06,25,0.00
2012,01,31,06,26,0.00
2012,01,31,06,27,0.00
2012,01,31,06,28,0.00
2012,01,31,06,29,0.00
2012,01,31,06,30,0.00
2012,01,31,06,31,0.00
2012,01,31,06,32,0.00
2012,01,31,06,33,0.00
2012,01,31,06,34,0.00
2012,01,31,06,35,0.00
2012,01,31,06,36,0.00
2012,01,31,06,37,0.00
2012,01,31,06,38,0.00
2012,01,31,06,39,0.00
2012,01,31,06,40,0.00
2012,01,31,06,41,0.00
2012,01,31,06,42,0.00
2012,01,31,06,43,0.00
2012,01,31,06,44,0.00
2012,01,31,06,45,0.00
2012,01,31,06,46,0.00
2012,01,31,06,47,0.00
2012,01,31,06,48,0.00
2012,01,31,06,49,0.00
2012,01,31,06,50,0.00
2012,01,31,06,51,0.00
2012,01,31,06,52,0.00
2012,01,31,06,53,0.00
2012,01,31,06,54,0.00
2012,01,31,06,55,0.00
2012,01,31,06,56,0.00
2012,01,31,06,57,0.00
2012,01,31,06,58,0.00
2012,01,31,06,59,0.00
2012,01,31,07,00,0.00
2012,01,31,07,01,0.00
2012,01,31,07,02,0.00
2012,01,31,07,03,0.00
2012,01,31,07,04,0.00
2012,01,31,07,05,0.00
2012,01,31,07,06,0.00
2012,01,31,07,07,0.00
2012,01,31,07,08,0.00
2012,01,31,07,09,0.00
2012,01,31,07,10,0.00
2012,01,31,07,11,0.00
2012,01,31,07,12,0.00
2012,01,31,07,13,0.00
2012,01,31,07,14,0.00
2012,01,31,07,15,0.00
2012,01,31,07,16,0.00
2012,01,31,07,17,0.00
2012,01,31,07,18,0.00
2012,01,31,07,19,0.00
2012,01,31,07,20,0.00
2012,01,31,07,21,0.00
2012,01,31,07,22,0.00
2012,01,31,07,23,0.00
2012,01,31,07,24,0.00
2012,01,31,07,25,0.00
2012,01,31,07,26,0.00
2012,01,31,07,27,0.00
2012,01,31,07,28,0.00
2012,01,31,07,29,0.00
2012,01,31,07,30,0.00
2012,01,31,07,31,0.00
2012,01,31,07,32,0.00
2012,01,31,07,33,0.00
2012,01,31,07,34,0.00
2012,01,31,07,35,0.00
2012,01,31,07,36,0.00
2012,01,31,07,37,0.00
2012,01,31,07,38,0.00
2012,01,31,07,39,0.00
2012,01,31,07,40,0.00
2012,01,31,07,41,0.00
2012,01,31,07,42,0.00
2012,01,31,07,43,0.00
2012,01,31,07,44,0.00
2012,01,31,07,45,0.00
2012,01,31,07,46,0.00
2012,01,31,07,47,0.00
2012,01,31,07,48,0.00
2012,01,31,07,49,0.00
2012,01,31,07,50,0.00
2012,01,31,07,51,0.00
2012,01,31,07,52,0.00
2012,01,31,07,53,4.50
2012,01,31,07,54,5.00
2012,01,31,07,55,5.00
2012,01,31,07,56,6.00
2012,01,31,07,57,8.30
2012,01,31,07,58,9.00
2012,01,31,07,59,10.90
2012,01,31,08,00,11.00
2012,01,31,08,01,11.40
2012,01,31,08,02,12.00
2012,01,31,08,03,12.00
2012,01,31,08,04,13.60
2012,01,31,08,05,14.00
2012,01,31,08,06,14.00
2012,01,31,08,07,14.00
2012,01,31,08,08,14.00
2012,01,31,08,09,12.70
2012,01,31,08,10,12.00
2012,01,31,08,11,13.90
2012,01,31,08,12,14.00
2012,01,31,08,13,14.00
2012,01,31,08,14,15.20
2012,01,31,08,15,16.00
2012,01,31,08,16,16.00
2012,01,31,08,17,16.00
2012,01,31,08,18,16.50
2012,01,31,08,19,18.40
2012,01,31,08,20,21.30
2012,01,31,08,21,25.10
2012,01,31,08,22,26.00
2012,01,31,08,23,28.00
2012,01,31,08,24,28.00
2012,01,31,08,25,28.00
2012,01,31,08,26,26.80
2012,01,31,08,27,26.00
2012,01,31,08,28,25.10
2012,01,31,08,29,25.90
2012,01,31,08,30,24.40
2012,01,31,08,31,22.10
2012,01,31,08,32,19.80
2012,01,31,08,33,19.00
2012,01,31,08,34,18.10
2012,01,31,08,35,18.00
2012,01,31,08,36,18.00
2012,01,31,08,37,18.00
2012,01,31,08,38,18.00
2012,01,31,08,39,18.80
2012,01,31,08,40,19.20
2012,01,31,08,41,21.00
2012,01,31,08,42,21.70
2012,01,31,08,43,24.00
2012,01,31,08,44,25.60
2012,01,31,08,45,27.60
2012,01,31,08,46,30.00
2012,01,31,08,47,31.50
2012,01,31,08,48,29.30
2012,01,31,08,49,28.00
2012,01,31,08,50,28.00
2012,01,31,08,51,26.40
2012,01,31,08,52,25.90
2012,01,31,08,53,25.00
2012,01,31,08,54,25.40
2012,01,31,08,55,25.50
2012,01,31,08,56,23.60
2012,01,31,08,57,21.30
2012,01,31,08,58,25.30
2012,01,31,08,59,29.50
2012,01,31,09,00,35.70
2012,01,31,09,01,41.90
2012,01,31,09,02,48.90
2012,01,31,09,03,52.70
2012,01,31,09,04,60.50
2012,01,31,09,05,62.80
2012,01,31,09,06,68.30
2012,01,31,09,07,88.70
2012,01,31,09,08,107.10
2012,01,31,09,09,123.50
2012,01,31,09,10,121.20
2012,01,31,09,11,129.10
2012,01,31,09,12,118.10
2012,01,31,09,13,117.20
2012,01,31,09,14,118.00
2012,01,31,09,15,130.50
2012,01,31,09,16,127.50
2012,01,31,09,17,111.60
2012,01,31,09,18,106.00
2012,01,31,09,19,101.80
2012,01,31,09,20,88.00
2012,01,31,09,21,80.20
2012,01,31,09,22,92.40
2012,01,31,09,23,117.80
2012,01,31,09,24,124.50
2012,01,31,09,25,97.80
2012,01,31,09,26,82.50
2012,01,31,09,27,78.80
2012,01,31,09,28,75.60
2012,01,31,09,29,72.40
2012,01,31,09,30,69.50
2012,01,31,09,31,69.00
2012,01,31,09,32,73.20
2012,01,31,09,33,84.40
2012,01,31,09,34,95.90
2012,01,31,09,35,96.80
2012,01,31,09,36,78.60
2012,01,31,09,37,70.60
2012,01,31,09,38,70.00
2012,01,31,09,39,72.40
2012,01,31,09,40,78.40
2012,01,31,09,41,87.80
2012,01,31,09,42,95.80
2012,01,31,09,43,95.90
2012,01,31,09,44,91.60
2012,01,31,09,45,98.80
2012,01,31,09,46,123.20
2012,01,31,09,47,136.30
2012,01,31,09,48,148.10
2012,01,31,09,49,159.40
2012,01,31,09,50,170.50
2012,01,31,09,51,168.70
2012,01,31,09,52,168.50
2012,01,31,09,53,173.90
2012,01,31,09,54,166.40
2012,01,31,09,55,161.50
2012,01,31,09,56,167.10
2012,01,31,09,57,209.60
2012,01,31,09,58,188.80
2012,01,31,09,59,179.60
2012,01,31,10,00,175.40
2012,01,31,10,01,170.10
2012,01,31,10,02,160.60
2012,01,31,10,03,153.80
2012,01,31,10,04,151.40
2012,01,31,10,05,144.90
2012,01,31,10,06,134.40
2012,01,31,10,07,132.40
2012,01,31,10,08,132.00
2012,01,31,10,09,132.50
2012,01,31,10,10,134.40
2012,01,31,10,11,137.00
2012,01,31,10,12,140.30
2012,01,31,10,13,143.50
2012,01,31,10,14,148.30
2012,01,31,10,15,153.50
2012,01,31,10,16,154.20
2012,01,31,10,17,150.80
2012,01,31,10,18,149.00
2012,01,31,10,19,149.00
2012,01,31,10,20,124.40
2012,01,31,10,21,95.70
2012,01,31,10,22,75.10
2012,01,31,10,23,61.00
2012,01,31,10,24,49.40
2012,01,31,10,25,41.00
2012,01,31,10,26,37.00
2012,01,31,10,27,37.60
2012,01,31,10,28,41.90
2012,01,31,10,29,50.80
2012,01,31,10,30,62.10
2012,01,31,10,31,74.30
2012,01,31,10,32,86.20
2012,01,31,10,33,98.20
2012,01,31,10,34,113.10
2012,01,31,10,35,126.20
2012,01,31,10,36,129.50
2012,01,31,10,37,131.80
2012,01,31,10,38,131.20
